DO7FJK-87 Weather Reports


time (UTC)temp
C
wind
direction
speed
KPH
gust
KPH
rain 1hr
cm
rain 24hr
cm
rain mn
cm
humidity
%
barometer
mb
20260507151000 18 0 9.7 0.0 0.00 0.00 0.00 48
20260507150000 17 0 9.7 0.0 0.00 0.00 0.00 48
20260507145000 18 0 11.3 0.0 0.00 0.00 0.00 50
20260507144000 18 0 6.4 0.0 0.00 0.00 0.00 50
20260507143000 17 0 9.7 0.0 0.00 0.00 0.00 50
20260507142000 17 0 11.3 0.0 0.00 0.00 0.00 52
20260507141000 18 0 11.3 0.0 0.00 0.00 0.00 54
20260507140000 17 0 11.3 0.0 0.00 0.00 0.00 55
20260507135000 17 0 8.0 0.0 0.00 0.00 0.00 54
20260507134000 18 0 9.7 0.0 0.00 0.00 0.00 56
20260507133000 17 0 9.7 0.0 0.00 0.00 0.00 61
20260507132000 17 0 12.9 0.0 0.00 0.00 0.00 57
20260507131000 17 0 9.7 0.0 0.00 0.00 0.00 59
20260507130000 17 0 9.7 0.0 0.00 0.00 0.00 60
20260507125000 17 0 11.3 0.0 0.00 0.00 0.00 58
20260507124000 17 0 11.3 0.0 0.00 0.00 0.00 62
20260507123000 17 0 9.7 0.0 0.00 0.00 0.00 59
20260507122000 17 0 14.5 0.0 0.00 0.00 0.00 60
20260507121000 17 0 9.7 0.0 0.00 0.00 0.00 62
20260507120000 16 0 11.3 0.0 0.00 0.00 0.00 61
20260507115000 16 0 11.3 0.0 0.00 0.00 0.00 61
20260507114000 17 0 11.3 0.0 0.00 0.00 0.00 59
20260507113000 17 0 11.3 0.0 0.00 0.00 0.00 61
20260507112000 17 0 9.7 0.0 0.00 0.00 0.00 60
20260507111000 17 0 8.0 0.0 0.00 0.00 0.00 55
20260507110000 17 0 9.7 0.0 0.00 0.00 0.00 57
20260507105000 17 0 9.7 0.0 0.00 0.00 0.00 54
20260507104001 17 0 9.7 0.0 0.00 0.00 0.00 56
20260507103000 17 0 6.4 0.0 0.00 0.00 0.00 55
20260507102000 16 0 11.3 0.0 0.00 0.00 0.00 59
20260507101001 15 0 12.9 0.0 0.00 0.00 0.00 57
20260507100000 16 0 9.7 0.0 0.00 0.00 0.00 57
20260507095000 16 0 6.4 0.0 0.00 0.00 0.00 58
20260507094000 16 0 9.7 0.0 0.00 0.00 0.00 60
20260507093000 15 0 8.0 0.0 0.00 0.00 0.00 62
20260507092000 15 0 9.7 0.0 0.00 0.00 0.00 63
20260507091000 15 0 8.0 0.0 0.00 0.00 0.00 62
20260507090000 14 0 9.7 0.0 0.00 0.00 0.00 63
20260507085000 14 0 6.4 0.0 0.00 0.00 0.00 63
20260507084000 13 0 9.7 0.0 0.00 0.00 0.00 64
20260507083000 13 0 8.0 0.0 0.00 0.00 0.00 68
20260507082000 13 0 9.7 0.0 0.00 0.00 0.00 68
20260507081000 13 0 6.4 0.0 0.00 0.00 0.00 68
20260507080000 13 0 8.0 0.0 0.00 0.00 0.00 69
20260507075000 12 0 4.8 0.0 0.00 0.00 0.00 70
20260507074000 12 0 6.4 0.0 0.00 0.00 0.00 71
20260507073000 12 0 6.4 0.0 0.00 0.00 0.00 72
20260507072000 12 0 6.4 0.0 0.00 0.00 0.00 73
20260507071000 11 0 4.8 0.0 0.00 0.00 0.00 74
20260507070001 11 0 6.4 0.0 0.00 0.00 0.00 77
20260507065000 9 0 6.4 0.0 0.00 0.00 0.00 79
20260507064000 9 0 0.0 0.0 0.00 0.00 0.00 79
20260507063000 9 0 0.0 0.0 0.00 0.00 0.00 80
20260507062000 8 0 3.2 0.0 0.00 0.00 0.00 81
20260507061000 8 0 3.2 0.0 0.00 0.00 0.00 83
20260507060000 7 0 6.4 0.0 0.00 0.00 0.00 85
20260507055000 7 0 4.8 0.0 0.00 0.00 0.00 85
20260507054000 7 0 0.0 0.0 0.00 0.00 0.00 86
20260507053000 6 0 0.0 0.0 0.00 0.00 0.00 86
20260507052000 6 0 3.2 0.0 0.00 0.00 0.00 86
20260507051000 6 0 0.0 0.0 0.00 0.00 0.00 86
20260507050000 6 0 0.0 0.0 0.00 0.00 0.00 86
20260507045001 6 0 3.2 0.0 0.00 0.00 0.00 86
20260507044000 6 0 0.0 0.0 0.00 0.00 0.00 86
20260507043000 6 0 4.8 0.0 0.00 0.00 0.00 86
20260507042000 6 0 0.0 0.0 0.00 0.00 0.00 86
20260507041000 6 0 0.0 0.0 0.00 0.00 0.00 86
20260507040000 6 0 4.8 0.0 0.00 0.00 0.00 86
20260507035000 6 0 0.0 0.0 0.00 0.00 0.00 86
20260507034001 6 0 6.4 0.0 0.00 0.00 0.00 86
20260507033001 6 0 4.8 0.0 0.00 0.00 0.00 86
20260507032000 6 0 0.0 0.0 0.00 0.00 0.00 86
20260507031000 6 0 4.8 0.0 0.00 0.00 0.00 86
20260507030000 6 0 4.8 0.0 0.00 0.00 0.00 85
20260507025001 7 0 0.0 0.0 0.00 0.00 0.00 85
20260507024000 7 0 4.8 0.0 0.00 0.00 0.00 85
20260507023000 7 0 0.0 0.0 0.00 0.00 0.00 85
20260507022000 7 0 9.7 0.0 0.00 0.00 0.00 85
20260507021000 7 0 8.0 0.0 0.00 0.00 0.00 85
20260507020000 7 0 6.4 0.0 0.00 0.00 0.00 85
20260507015000 7 0 0.0 0.0 0.00 0.00 0.00 85
20260507014000 7 0 0.0 0.0 0.00 0.00 0.00 85
20260507013000 7 0 0.0 0.0 0.00 0.00 0.00 85
20260507012000 7 0 0.0 0.0 0.00 0.00 0.00 85
20260507011000 7 0 0.0 0.0 0.00 0.00 0.00 84
20260507010000 7 0 4.8 0.0 0.00 0.00 0.00 84
20260507005001 7 0 6.4 0.0 0.00 0.00 0.00 84
20260507004000 7 0 0.0 0.0 0.00 0.00 0.00 84
20260507003000 7 0 0.0 0.0 0.00 0.00 0.00 84
20260507002000 7 0 0.0 0.0 0.00 0.00 0.00 84
20260507001001 7 0 6.4 0.0 0.00 0.00 0.00 83
20260507000001 7 0 6.4 0.0 0.00 0.00 0.00 83
20260506235000 7 0 6.4 0.0 0.00 0.00 0.00 83
20260506234001 7 0 11.3 0.0 0.00 0.00 0.00 84
20260506233000 8 0 0.0 0.0 0.00 0.00 0.00 84
20260506232000 8 0 3.2 0.0 0.00 0.00 0.00 84
20260506231001 8 0 0.0 0.0 0.00 0.00 0.00 84
20260506230000 8 0 6.4 0.0 0.00 0.00 0.00 84
20260506225000 8 0 6.4 0.0 0.00 0.00 0.00 84
20260506224000 8 0 0.0 0.0 0.00 0.00 0.00 84
20260506223000 8 0 6.4 0.0 0.00 0.00 0.00 84
20260506222000 8 0 0.0 0.0 0.00 0.00 0.00 84
20260506221000 8 0 3.2 0.0 0.00 0.00 0.00 83
20260506220000 8 0 6.4 0.0 0.00 0.00 0.00 83
20260506215000 8 0 9.7 0.0 0.00 0.00 0.00 83
20260506214001 8 0 6.4 0.0 0.00 0.00 0.00 83
20260506213000 8 0 3.2 0.0 0.00 0.00 0.00 83
20260506212000 8 0 8.0 0.0 0.00 0.00 0.00 84
20260506211000 9 0 8.0 0.0 0.00 0.00 0.00 85
20260506210000 9 0 0.0 0.0 0.00 0.00 0.00 85
20260506205000 8 0 6.4 0.0 0.00 0.00 0.00 85
20260506204000 8 0 8.0 0.0 0.00 0.00 0.00 85
20260506203000 8 0 0.0 0.0 0.00 0.00 0.00 85
20260506202000 8 0 3.2 0.0 0.00 0.00 0.00 85
20260506201000 8 0 4.8 0.0 0.00 0.00 0.00 85
20260506200000 8 0 3.2 0.0 0.00 0.00 0.00 85
20260506195000 8 0 8.0 0.0 0.00 0.00 0.00 85
20260506194001 8 0 6.4 0.0 0.00 0.00 0.00 85
20260506193000 9 0 0.0 0.0 0.00 0.00 0.00 85
20260506192000 9 0 0.0 0.0 0.00 0.00 0.00 85
20260506190000 9 0 6.4 0.0 0.00 0.00 0.00 84
20260506185000 9 0 6.4 0.0 0.00 0.00 0.00 84
20260506184000 9 0 9.7 0.0 0.00 0.00 0.00 84
20260506183000 9 0 6.4 0.0 0.00 0.00 0.00 84
20260506182000 9 0 8.0 0.0 0.00 0.00 0.00 84
20260506181000 10 0 9.7 0.0 0.00 0.00 0.00 84
20260506180000 10 0 9.7 0.0 0.00 0.00 0.00 84
20260506175001 10 0 11.3 0.0 0.00 0.00 0.00 84
20260506174000 10 0 8.0 0.0 0.00 0.00 0.00 84
20260506173000 10 0 8.0 0.0 0.00 0.00 0.00 84
20260506172001 10 0 11.3 0.0 0.00 0.00 0.00 84
20260506171000 10 0 9.7 0.0 0.00 0.00 0.00 84
20260506170000 10 0 9.7 0.0 0.00 0.00 0.00 83
20260506165000 10 0 12.9 0.0 0.00 0.00 0.00 83
20260506164000 10 0 9.7 0.0 0.00 0.00 0.00 83
20260506163000 10 0 9.7 0.0 0.00 0.00 0.00 82
20260506162000 11 0 9.7 0.0 0.00 0.00 0.00 82
20260506161000 11 0 6.4 0.0 0.00 0.00 0.00 82
20260506160000 11 0 8.0 0.0 0.00 0.00 0.00 81
20260506155000 11 0 8.0 0.0 0.00 0.00 0.00 80
20260506154001 11 0 11.3 0.0 0.00 0.00 0.00 79
20260506153000 11 0 8.0 0.0 0.00 0.00 0.00 77
20260506152000 11 0 9.7 0.0 0.00 0.00 0.00 76